[[{"header":{"parameterUnit":"m.s-1","parameterCategory":2,"la1":30.2991,"la2":30.254,"lo1":-89.0895,"lo2":-89.0444,"dy":0.0017,"dx":0.0017,"nx":28,"ny":28,"refTime":"2025-07-08T21:00:00:Z","depth":"0","parameterNumber":2,"parameterNumberName":"U-component_of_CURRENTS"},"data":[0,0,0,0,0,0,0,0,0,0,0,0,0,0,0,0,0,0,0,0,0,0,0,0,0,0,0,0,0,0,0,0,0,0,0,0,0,0,0,0,0,0,0,0,0,0,0,0,0,0,0,0,0,0,0,0,0,0,0.1939,0.1939,0,0.1944,0.1944,0.1944,0.1936,0.1936,0.1936,0.1936,0.194,0.194,0.1941,0,0,0,0,0,0,0,0,0,0,0,0,0,0.1943,0.1943,0.1939,0.1939,0.1939,0.1944,0.1944,0.1944,0.1936,0.1936,0.1936,0.1936,0.194,0.194,0.1941,0,0,0,0,0,0,0,0,0,0,0,0,0,0.1943,0.1943,0.1939,0.1937,0.1937,0.1944,0.1944,0.1944,0.1936,0.1936,0.1936,0.1936,0.194,0.194,0.1941,0.1948,0,0,0.1942,0.1942,0,0,0,0,0,0,0,0,0.1943,0.1942,0.1937,0.1937,0.1937,0.194,0.1947,0.1945,0.1937,0.1936,0.1936,0.1936,0.1941,0.1941,0.1941,0.1948,0.1948,0.1942,0.1942,0.1942,0.1942,0,0,0,0,0,0,0,0.1943,0.1942,0.194,0.1937,0.1937,0.1943,0.1942,0.1947,0.1939,0.1936,0.1935,0.1938,0.1941,0.1941,0.1941,0.1948,0.1942,0.1942,0.1943,0.1943,0.1988,0.1989,0,0,0,0,0,0,0.1943,0.1942,0.194,0.194,0.194,0.1943,0.1942,0.1939,0.1939,0.1939,0.1938,0.1937,0.194,0.1941,0.1941,0.1964,0.1942,0.1943,0.1943,0.1987,0.1988,0.1989,0,0,0,0,0,0,0.1943,0.1943,0.1939,0.1942,0.1943,0.1943,0.1939,0.1939,0.1939,0.1941,0.194,0.1939,0.194,0.1941,0.1951,0.1963,0.1943,0.1943,0.1986,0.1987,0.1989,0.1999,0,0,0,0,0,0,0.1943,0.1943,0.1941,0.1942,0.1942,0.1946,0.1939,0.1939,0.1942,0.1941,0.1941,0.1941,0.194,0.1951,0.1952,0.1963,0.1944,0.1985,0.1987,0.1988,0.1998,0.2001,0.2004,0,0,0,0,0,0.1943,0.1943,0.1941,0.1941,0.194,0.1946,0.1947,0.1946,0.1942,0.1944,0.1948,0.1941,0.1963,0.1952,0.1952,0.1965,0.1984,0.1986,0.1988,0.1996,0.2,0.2004,0,0,0,0,0,0,0.1943,0.1942,0.194,0.1939,0.1943,0.1945,0.1948,0.1947,0.1951,0.1951,0.1949,0.195,0.1967,0.1966,0.1954,0.1985,0.1974,0.1977,0.1981,0.1984,0.1987,0.1973,0.1944,0,0,0,0,0,0.1942,0.1941,0.1944,0.1943,0.1945,0.1947,0.1949,0.195,0.1954,0.1954,0.1955,0.1962,0.1977,0.198,0.199,0.2002,0.2004,0.2013,0.2016,0.2019,0.2009,0.2043,0.2048,0.1996,0.1996,0.1996,0,0,0.1941,0.1942,0.194,0.1943,0.1945,0.1948,0.1947,0.1953,0.1955,0.1955,0.1958,0.1972,0.1984,0.2001,0.2008,0.2,0.2034,0.2022,0.2023,0.2012,0.2046,0.205,0.2055,0.1998,0.1998,0.1997,0,0,0.1941,0.194,0.1939,0.1944,0.195,0.1951,0.1954,0.1957,0.196,0.197,0.1976,0.1994,0.2007,0.2018,0.2027,0.2053,0.2051,0.2062,0.206,0.2093,0.2097,0.2101,0.2102,0.2105,0.206,0.206,0.206,0,0.194,0.1936,0.1941,0.1944,0.1949,0.1952,0.1956,0.196,0.1967,0.1978,0.1974,0.2011,0.2016,0.2045,0.2049,0.2058,0.2067,0.2043,0.2096,0.21,0.2103,0.2103,0.2107,0.2061,0.2061,0.2061,0.2061,0,0.1938,0.1938,0.1939,0.1941,0.195,0.1953,0.1962,0.197,0.1976,0.1986,0.2017,0.2028,0.2051,0.206,0.2057,0.209,0.2084,0.2098,0.2083,0.2109,0.2108,0.2111,0.2062,0.2062,0.2061,0.2061,0,0,0.1924,0.1935,0.1934,0.1935,0.1949,0.1952,0.1967,0.1984,0.1995,0.2012,0.2033,0.2058,0.2069,0.2078,0.2087,0.2104,0.2129,0.2105,0.2106,0.2098,0.2183,0.2115,0.2112,0.2158,0.2159,0.216,0.2168,0,0.1918,0.1921,0.1932,0.1934,0.1935,0.1954,0.1966,0.1987,0.2005,0.2026,0.2054,0.2075,0.2076,0.2086,0.2108,0.2129,0.2141,0.2124,0.2165,0.2165,0.2096,0.2116,0.2023,0.2018,0.2172,0.2172,0.2173,0,0.1905,0.1911,0.1914,0.1929,0.1933,0.1938,0.1964,0.1977,0.2017,0.2036,0.2072,0.209,0.2118,0.2114,0.216,0.2152,0.2162,0.2172,0.2174,0.2106,0.2105,0.202,0.2019,0.1987,0.2178,0.2178,0.2178,0,0.1882,0.1894,0.1895,0.19,0.1921,0.1931,0.1945,0.1982,0.2002,0.2042,0.2067,0.2107,0.2131,0.2158,0.2177,0.2175,0.2221,0.2227,0.2173,0.2168,0.2092,0.2078,0.2056,0.2256,0.2256,0.2256,0.2256,0,0.1863,0.1862,0.1883,0.1882,0.1888,0.1914,0.193,0.1955,0.1998,0.2026,0.2069,0.2097,0.2147,0.2179,0.2187,0.2186,0.2237,0.2164,0.2169,0.2092,0.2078,0.2049,0.2048,0.2257,0.2257,0.2257,0.2256,0,0.1831,0.1844,0.1845,0.1868,0.1874,0.1879,0.1916,0.1932,0.198,0.2019,0.2034,0.2103,0.2139,0.2172,0.2214,0.2195,0.2131,0.2189,0.2073,0.2063,0.1953,0.1957,0.1795,0.1763,0.2116,0.2114,0.2113,0,0.1811,0.1809,0.1828,0.1828,0.1836,0.1851,0.1864,0.1913,0.1938,0.2019,0.2037,0.2091,0.2114,0.2142,0.2115,0.2102,0.2075,0.201,0.1981,0.1923,0.1932,0.1819,0.1798,0.1887,0.1884,0.1881,0.1879,0,0.1778,0.1787,0.1791,0.1792,0.1799,0.181,0.1836,0.1853,0.1917,0.1949,0.1995,0.2018,0.2045,0.1991,0.1977,0.196,0.1895,0.1955,0.1942,0.1778,0.1608,0.1588,0.1893,0.1857,0.1859,0.1861,0.1862,0.1863,0.1752,0.1747,0.1753,0.1747,0.1755,0.1757,0.1744,0.1781,0.1802,0.1828,0.1908,0.1901,0.1902,0.1856,0.1827,0.172,0.1722,0.1671,0.1687,0.1582,0.1516,0.1745,0.1688,0.1689,0.169,0.1691,0.1692,0,0.1712,0.1709,0.1706,0.1692,0.1672,0.1698,0.171,0.1683,0.1671,0.1717,0.1732,0.171,0.1652,0.1639,0.1547,0.1477,0.1393,0.1447,0.1302,0.1308,0.1561,0.1519,0.1365,0.1365,0.1365,0.1365,0.1365,0.1366,0.1692,0.1669,0.1662,0.1608,0.1596,0.1545,0.1534,0.1507,0.1511,0.1472,0.1447,0.1469,0.1494,0.1424,0.1336,0.1312,0.1239,0.1115,0.1169,0.1399,0.1422,0.1444,0.1404,0.1228,0.1228,0.0828,0.0825,0.0823]},{"header":{"parameterUnit":"m.s-1","parameterCategory":2,"la1":30.2991,"la2":30.254,"lo1":-89.0895,"lo2":-89.0444,"dy":0.0017,"dx":0.0017,"nx":28,"ny":28,"refTime":"2025-07-08T21:00:00:Z","depth":"0","parameterNumber":3,"parameterNumberName":"V-component_of_CURRENTS"},"data":[0,0,0,0,0,0,0,0,0,0,0,0,0,0,0,0,0,0,0,0,0,0,0,0,0,0,0,0,0,0,0,0,0,0,0,0,0,0,0,0,0,0,0,0,0,0,0,0,0,0,0,0,0,0,0,0,0,0,0.0272,0.0272,0,0.0284,0.0284,0.0284,0.0276,0.0276,0.0276,0.0275,0.026,0.026,0.026,0,0,0,0,0,0,0,0,0,0,0,0,0,0.0229,0.023,0.0272,0.0272,0.0272,0.0284,0.0284,0.0284,0.0276,0.0276,0.0275,0.0275,0.026,0.026,0.026,0,0,0,0,0,0,0,0,0,0,0,0,0,0.0244,0.023,0.0272,0.0271,0.0271,0.0284,0.0284,0.0284,0.0276,0.0276,0.0275,0.0275,0.026,0.026,0.026,0.0265,0,0,0.0259,0.0259,0,0,0,0,0,0,0,0,0.0243,0.0245,0.0271,0.0271,0.0271,0.0279,0.0263,0.0277,0.0276,0.0273,0.0275,0.0275,0.0265,0.0264,0.0266,0.0265,0.0264,0.0259,0.0259,0.0259,0.0259,0,0,0,0,0,0,0,0.0242,0.0244,0.0275,0.0271,0.0271,0.0265,0.0267,0.0266,0.0269,0.0273,0.0273,0.0276,0.0265,0.0266,0.0266,0.0264,0.0259,0.0259,0.0258,0.0258,0.0267,0.0267,0,0,0,0,0,0,0.0244,0.0244,0.0275,0.0276,0.0257,0.0267,0.0268,0.0276,0.027,0.0269,0.0277,0.0276,0.0267,0.0266,0.0265,0.0279,0.0259,0.0258,0.0258,0.0267,0.0267,0.0268,0,0,0,0,0,0,0.0243,0.0247,0.0274,0.0261,0.0264,0.0268,0.0276,0.0276,0.0279,0.0273,0.0272,0.0279,0.0267,0.0265,0.0268,0.0278,0.0258,0.0258,0.0266,0.0267,0.0267,0.0301,0,0,0,0,0,0,0.0242,0.0247,0.0252,0.0261,0.0265,0.0286,0.0277,0.0277,0.0282,0.0281,0.0275,0.0273,0.0266,0.0269,0.0268,0.0277,0.0258,0.0266,0.0267,0.0267,0.03,0.0303,0.0306,0,0,0,0,0,0.0241,0.0252,0.0252,0.0256,0.0272,0.0286,0.0288,0.0288,0.0283,0.0287,0.0283,0.0273,0.0273,0.0269,0.0268,0.0277,0.0265,0.0266,0.0267,0.0298,0.0302,0.0306,0,0,0,0,0,0,0.0235,0.0253,0.0253,0.0269,0.0278,0.0285,0.0292,0.029,0.0291,0.029,0.028,0.0279,0.0284,0.0276,0.0272,0.0281,0.0267,0.0267,0.0291,0.0294,0.0297,0.0305,0.0258,0,0,0,0,0,0.0237,0.0251,0.0263,0.0275,0.0282,0.0286,0.0291,0.0293,0.0296,0.0296,0.0292,0.0288,0.0288,0.0287,0.0285,0.0291,0.0279,0.0296,0.0299,0.0301,0.0307,0.0298,0.0301,0.0271,0.0271,0.0271,0,0,0.0237,0.025,0.0257,0.0275,0.0282,0.0299,0.0288,0.03,0.0313,0.0294,0.0308,0.0299,0.0292,0.03,0.0301,0.0294,0.0303,0.0302,0.0305,0.0309,0.0299,0.0302,0.0305,0.0271,0.0271,0.0271,0,0,0.0251,0.0258,0.0275,0.0287,0.0302,0.0308,0.0313,0.0323,0.0325,0.0337,0.0326,0.0324,0.0325,0.0322,0.0321,0.0339,0.0319,0.0336,0.0359,0.035,0.0353,0.0355,0.034,0.034,0.0337,0.0338,0.0338,0,0.025,0.0277,0.0281,0.0303,0.0317,0.0315,0.0337,0.0342,0.035,0.0357,0.0346,0.0349,0.0337,0.0349,0.0353,0.0347,0.0336,0.0346,0.0355,0.0356,0.0358,0.0342,0.0342,0.0339,0.0339,0.0339,0.0339,0,0.0279,0.03,0.0312,0.0341,0.0353,0.0373,0.0383,0.0393,0.0393,0.0398,0.0407,0.0391,0.0391,0.0386,0.0375,0.0383,0.037,0.036,0.0346,0.0363,0.0345,0.0344,0.0342,0.0341,0.0341,0.034,0,0,0.0282,0.0325,0.033,0.0353,0.0377,0.0394,0.0416,0.0439,0.0458,0.0452,0.0471,0.0461,0.0446,0.0443,0.0425,0.0415,0.041,0.0394,0.0392,0.038,0.0387,0.0379,0.0378,0.0402,0.0402,0.0402,0.0368,0,0.0306,0.0354,0.0368,0.0413,0.0441,0.0449,0.0473,0.049,0.0497,0.0513,0.0493,0.05,0.047,0.0467,0.0454,0.0424,0.0411,0.042,0.0371,0.037,0.0362,0.0378,0.0404,0.0377,0.0367,0.0367,0.0367,0,0.0333,0.0365,0.0413,0.0462,0.0474,0.0498,0.0539,0.056,0.0576,0.0579,0.0576,0.0557,0.0542,0.051,0.0468,0.0475,0.0434,0.0406,0.0404,0.0386,0.0361,0.0359,0.0376,0.0363,0.0366,0.0366,0.0366,0,0.0345,0.0398,0.0441,0.0457,0.0507,0.0529,0.0554,0.0581,0.0609,0.0618,0.0633,0.0606,0.0598,0.0547,0.0482,0.0475,0.0432,0.0414,0.0368,0.0366,0.0374,0.0374,0.0376,0.0382,0.0382,0.0383,0.0383,0,0.037,0.0404,0.0451,0.0477,0.053,0.0553,0.0606,0.0625,0.0657,0.0701,0.0666,0.0686,0.0608,0.0571,0.0502,0.0436,0.0444,0.0377,0.0361,0.0386,0.0387,0.0364,0.0346,0.0381,0.0382,0.0382,0.0382,0,0.0379,0.0409,0.0463,0.0519,0.0539,0.0578,0.0644,0.0685,0.0706,0.076,0.0763,0.0747,0.0703,0.0618,0.0536,0.0471,0.0397,0.0371,0.0401,0.039,0.0337,0.032,0.0308,0.0322,0.0319,0.0319,0.0319,0,0.039,0.0418,0.049,0.0527,0.0555,0.0614,0.0661,0.0704,0.0754,0.0804,0.0836,0.0804,0.0803,0.0675,0.0551,0.0431,0.0401,0.0366,0.0358,0.0345,0.0314,0.0318,0.0331,0.0377,0.0378,0.0378,0.0378,0,0.0409,0.0432,0.0478,0.0552,0.0608,0.0678,0.0748,0.0797,0.0858,0.0907,0.0962,0.096,0.0847,0.0749,0.0577,0.0485,0.0383,0.0366,0.0351,0.0362,0.0369,0.0371,0.0381,0.038,0.038,0.0379,0.0379,0.0379,0.042,0.0453,0.0513,0.0584,0.0651,0.0738,0.0804,0.0886,0.0976,0.1072,0.1059,0.1088,0.0945,0.0724,0.0591,0.0399,0.0403,0.0351,0.033,0.0334,0.0358,0.0368,0.0351,0.035,0.035,0.035,0.0349,0,0.0434,0.0478,0.0543,0.0633,0.0707,0.0741,0.0862,0.0941,0.1059,0.1151,0.1205,0.1175,0.0993,0.079,0.053,0.0404,0.037,0.0332,0.0352,0.0366,0.0374,0.0388,0.0381,0.0381,0.0381,0.0381,0.0381,0.0381,0.0444,0.0502,0.054,0.0662,0.0728,0.0839,0.0914,0.1037,0.1135,0.1274,0.1324,0.135,0.1236,0.0763,0.049,0.0404,0.0362,0.0319,0.0306,0.0311,0.0312,0.0313,0.0323,0.0303,0.0303,0.0341,0.0341,0.0341]}],[{"header":{"parameterUnit":"m.s-1","parameterCategory":2,"la1":30.2991,"la2":30.254,"lo1":-89.0895,"lo2":-89.0444,"dy":0.0017,"dx":0.0017,"nx":28,"ny":28,"refTime":"2025-07-08T21:00:00:Z","depth":"2","parameterNumber":2,"parameterNumberName":"U-component_of_CURRENTS"},"data":[0,0,0,0,0,0,0,0,0,0,0,0,0,0,0,0,0,0,0,0,0,0,0,0,0,0,0,0,0,0,0,0,0,0,0,0,0,0,0,0,0,0,0,0,0,0,0,0,0,0,0,0,0,0,0,0,0,0,0.1587,0.1587,0,0.1593,0.1593,0.1593,0.1596,0.1596,0.1596,0.1596,0.1609,0.161,0.161,0,0,0,0,0,0,0,0,0,0,0,0,0,0.1593,0.1593,0.1587,0.1587,0.1587,0.1593,0.1593,0.1593,0.1596,0.1596,0.1596,0.1596,0.1609,0.161,0.161,0,0,0,0,0,0,0,0,0,0,0,0,0,0.1593,0.1593,0.1587,0.159,0.159,0.1593,0.1593,0.1593,0.1596,0.1596,0.1596,0.1596,0.1609,0.161,0.161,0.161,0,0,0.1611,0.1611,0,0,0,0,0,0,0,0,0.1593,0.1593,0.1589,0.159,0.159,0.1595,0.16,0.16,0.1596,0.1593,0.1596,0.1596,0.1606,0.1606,0.1606,0.1611,0.1611,0.1611,0.1612,0.1612,0.1612,0,0,0,0,0,0,0,0.1593,0.1592,0.1588,0.159,0.159,0.1597,0.1596,0.16,0.1598,0.1593,0.1593,0.1596,0.1606,0.1605,0.1606,0.1612,0.1611,0.1612,0.1612,0.1612,0.1657,0.1658,0,0,0,0,0,0,0.1593,0.1592,0.1588,0.1589,0.1593,0.1596,0.1596,0.1592,0.1598,0.1599,0.1595,0.1596,0.1605,0.1606,0.1607,0.1637,0.1612,0.1612,0.1612,0.1656,0.1657,0.1658,0,0,0,0,0,0,0.1593,0.1592,0.1588,0.1592,0.1592,0.1596,0.1592,0.1592,0.1599,0.16,0.1601,0.1603,0.1605,0.1606,0.162,0.1636,0.1612,0.1613,0.1655,0.1656,0.1658,0.1678,0,0,0,0,0,0,0.1593,0.1592,0.1593,0.1592,0.1592,0.1595,0.1592,0.1592,0.1601,0.1601,0.1606,0.1607,0.1605,0.162,0.1621,0.1636,0.1613,0.1654,0.1655,0.1657,0.1676,0.168,0.1683,0,0,0,0,0,0.1593,0.1593,0.1593,0.1593,0.1591,0.1596,0.1596,0.1599,0.1601,0.1606,0.1612,0.1607,0.1632,0.162,0.1621,0.1638,0.1653,0.1655,0.1657,0.1675,0.1679,0.1683,0,0,0,0,0,0,0.1597,0.1593,0.1593,0.1592,0.1597,0.1597,0.1602,0.1604,0.1612,0.1616,0.1615,0.1617,0.1638,0.1635,0.1623,0.1657,0.1643,0.1646,0.1656,0.1661,0.1664,0.1653,0.1613,0,0,0,0,0,0.1598,0.1596,0.1597,0.1597,0.16,0.1603,0.1607,0.161,0.1615,0.1619,0.1623,0.1632,0.1646,0.1651,0.166,0.1674,0.1674,0.1688,0.1691,0.1694,0.1687,0.1715,0.1721,0.1665,0.1665,0.1665,0,0,0.1599,0.1598,0.1597,0.1599,0.1602,0.1605,0.1606,0.1614,0.1619,0.1619,0.1631,0.1645,0.1654,0.1673,0.1682,0.1672,0.1709,0.1697,0.1699,0.169,0.1718,0.1723,0.1728,0.1666,0.1666,0.1666,0,0,0.16,0.1601,0.16,0.1605,0.1613,0.1614,0.1618,0.1624,0.1631,0.1646,0.1651,0.1672,0.1688,0.1696,0.1703,0.1731,0.1729,0.1742,0.1746,0.1775,0.1779,0.1783,0.1784,0.1788,0.174,0.1741,0.1741,0,0.1604,0.1599,0.1603,0.1606,0.1612,0.1618,0.1623,0.1628,0.1639,0.1653,0.1654,0.1693,0.1698,0.1724,0.1732,0.1738,0.1747,0.1728,0.1779,0.1783,0.1786,0.1786,0.179,0.1742,0.1742,0.1742,0.1741,0,0.1601,0.1603,0.1605,0.1608,0.1617,0.1622,0.1632,0.1645,0.1657,0.1669,0.1705,0.1715,0.1739,0.1748,0.1746,0.1779,0.1773,0.1782,0.1765,0.1793,0.1791,0.1795,0.1744,0.1743,0.1743,0.1742,0,0,0.1593,0.1601,0.1602,0.1604,0.1619,0.1623,0.1641,0.1661,0.1676,0.1699,0.1724,0.1751,0.1765,0.1773,0.178,0.1796,0.1825,0.1798,0.1799,0.1793,0.1874,0.1808,0.1806,0.185,0.1851,0.1852,0.1859,0,0.159,0.1592,0.1601,0.1607,0.1608,0.1629,0.1643,0.1667,0.1691,0.1715,0.1744,0.1769,0.1772,0.1786,0.1807,0.1825,0.1838,0.1821,0.1852,0.1852,0.1787,0.1809,0.1666,0.1656,0.1863,0.1863,0.1864,0,0.158,0.1583,0.1588,0.1604,0.1608,0.1617,0.1648,0.1663,0.1706,0.173,0.1769,0.1788,0.1819,0.1815,0.186,0.1853,0.1861,0.1869,0.187,0.1801,0.1794,0.1663,0.1655,0.187,0.187,0.1869,0.1869,0,0.156,0.1572,0.1575,0.158,0.1601,0.1617,0.1633,0.1674,0.1695,0.1741,0.1768,0.1808,0.1836,0.186,0.1879,0.1877,0.1918,0.192,0.1865,0.186,0.1737,0.1719,0.1946,0.1946,0.1946,0.1946,0.1946,0,0.1545,0.1546,0.1567,0.1567,0.1578,0.1604,0.1627,0.1654,0.17,0.1728,0.1774,0.1801,0.1853,0.1882,0.1888,0.1885,0.1933,0.1861,0.1861,0.1739,0.1722,0.1909,0.1905,0.1947,0.1946,0.1946,0.1946,0,0.1518,0.153,0.1533,0.1558,0.1567,0.1577,0.1619,0.1636,0.1688,0.1727,0.1744,0.1812,0.1847,0.1878,0.1915,0.1895,0.1895,0.1882,0.1719,0.1699,0.1812,0.1809,0.1814,0.1812,0.181,0.1809,0.1808,0,0.1501,0.15,0.152,0.1523,0.1534,0.1556,0.1571,0.1623,0.1645,0.1726,0.174,0.1797,0.1816,0.1839,0.1812,0.1796,0.186,0.1652,0.1617,0.18,0.18,0.18,0.1799,0.1462,0.1457,0.1454,0.1452,0,0.1472,0.1482,0.1485,0.149,0.1503,0.1512,0.1542,0.1556,0.1619,0.1652,0.1691,0.1712,0.1737,0.1656,0.1642,0.1615,0.164,0.1583,0.1832,0.1516,0.1467,0.1468,0.1479,0.1422,0.1425,0.1427,0.1429,0.143,0.1451,0.1445,0.145,0.1449,0.146,0.1458,0.1445,0.1479,0.1497,0.1524,0.1594,0.1573,0.1575,0.1473,0.1412,0.1356,0.1471,0.1402,0.1412,0.1426,0.1382,0.1333,0.1253,0.1255,0.1257,0.1258,0.126,0,0.1415,0.141,0.1406,0.1394,0.1376,0.1407,0.141,0.138,0.1367,0.1409,0.1423,0.1292,0.123,0.1229,0.1094,0.1071,0.1062,0.1027,0.1011,0.1041,0.1067,0.1006,0.0777,0.0775,0.0774,0.0773,0,0,0.1396,0.1371,0.136,0.1308,0.1303,0.1257,0.1244,0.1211,0.1209,0.1168,0.114,0.1219,0.1219,0.1008,0.0958,0.0849,0.0944,0.0809,0.1198,0.1213,0.1238,0.1284,0.1223,0,0,0,0,0]},{"header":{"parameterUnit":"m.s-1","parameterCategory":2,"la1":30.2991,"la2":30.254,"lo1":-89.0895,"lo2":-89.0444,"dy":0.0017,"dx":0.0017,"nx":28,"ny":28,"refTime":"2025-07-08T21:00:00:Z","depth":"2","parameterNumber":3,"parameterNumberName":"V-component_of_CURRENTS"},"data":[0,0,0,0,0,0,0,0,0,0,0,0,0,0,0,0,0,0,0,0,0,0,0,0,0,0,0,0,0,0,0,0,0,0,0,0,0,0,0,0,0,0,0,0,0,0,0,0,0,0,0,0,0,0,0,0,0,0,0.0207,0.0207,0,0.0215,0.0215,0.0215,0.0208,0.0208,0.0207,0.0207,0.0191,0.019,0.019,0,0,0,0,0,0,0,0,0,0,0,0,0,0.0169,0.0169,0.0207,0.0207,0.0207,0.0215,0.0215,0.0215,0.0208,0.0208,0.0207,0.0207,0.0191,0.019,0.019,0,0,0,0,0,0,0,0,0,0,0,0,0,0.0181,0.017,0.0207,0.0206,0.0206,0.0215,0.0215,0.0215,0.0208,0.0208,0.0207,0.0207,0.0191,0.019,0.019,0.0193,0,0,0.0189,0.0189,0,0,0,0,0,0,0,0,0.018,0.0182,0.0205,0.0206,0.0206,0.0211,0.0196,0.0207,0.0208,0.0206,0.0207,0.0207,0.0196,0.0195,0.0196,0.0192,0.0191,0.0189,0.0188,0.0188,0.0188,0,0,0,0,0,0,0,0.0179,0.0182,0.0209,0.0206,0.0206,0.0199,0.02,0.0198,0.0201,0.0206,0.0206,0.0209,0.0196,0.0197,0.0196,0.0191,0.0189,0.0188,0.0188,0.0188,0.019,0.019,0,0,0,0,0,0,0.0182,0.0181,0.0209,0.0209,0.0193,0.02,0.0202,0.0209,0.0202,0.0201,0.0209,0.0208,0.0197,0.0196,0.0195,0.0207,0.0188,0.0188,0.0188,0.019,0.019,0.0191,0,0,0,0,0,0,0.0181,0.0185,0.0208,0.0196,0.0199,0.0201,0.0209,0.0209,0.0212,0.0204,0.0203,0.0212,0.0197,0.0196,0.0197,0.0206,0.0188,0.0187,0.0189,0.019,0.019,0.0226,0,0,0,0,0,0,0.018,0.0184,0.019,0.0196,0.0199,0.0218,0.021,0.0209,0.0214,0.0214,0.0206,0.0204,0.0197,0.0197,0.0196,0.0205,0.0187,0.0189,0.019,0.019,0.0224,0.0227,0.023,0,0,0,0,0,0.0179,0.019,0.019,0.0193,0.0207,0.0218,0.0219,0.0219,0.0215,0.0219,0.0214,0.0205,0.02,0.0198,0.0196,0.0205,0.0189,0.019,0.019,0.0223,0.0227,0.023,0,0,0,0,0,0,0.0175,0.019,0.0191,0.0205,0.0212,0.0218,0.0224,0.0222,0.0222,0.0221,0.021,0.0209,0.0213,0.0203,0.0201,0.0207,0.0192,0.0193,0.0217,0.0221,0.0224,0.0233,0.0187,0,0,0,0,0,0.0177,0.019,0.02,0.0212,0.0217,0.022,0.0224,0.0225,0.0227,0.0227,0.0222,0.0216,0.0215,0.0213,0.021,0.0214,0.0202,0.0218,0.0221,0.0223,0.023,0.0219,0.0222,0.0193,0.0193,0.0193,0,0,0.0178,0.0189,0.0195,0.0212,0.0217,0.0233,0.0222,0.0233,0.0245,0.0225,0.0237,0.0227,0.0218,0.0224,0.0225,0.0217,0.0225,0.0224,0.0227,0.0232,0.022,0.0223,0.0226,0.0193,0.0193,0.0193,0,0,0.0191,0.0198,0.0214,0.0224,0.0237,0.0242,0.0247,0.0254,0.0256,0.0267,0.0255,0.0251,0.025,0.0245,0.0242,0.0259,0.0241,0.0256,0.028,0.0269,0.0272,0.0274,0.026,0.0261,0.0257,0.0257,0.0257,0,0.019,0.0215,0.0219,0.0239,0.0251,0.0249,0.0269,0.0273,0.0279,0.0285,0.0275,0.0274,0.0262,0.027,0.0274,0.0266,0.0257,0.0268,0.0274,0.0275,0.0277,0.0263,0.0263,0.0259,0.0259,0.0259,0.0259,0,0.0217,0.0237,0.0248,0.0275,0.0286,0.0304,0.0313,0.0322,0.0322,0.0325,0.0332,0.0314,0.0313,0.0307,0.0296,0.0303,0.0291,0.0279,0.0266,0.0282,0.0266,0.0265,0.0262,0.0261,0.0261,0.026,0,0,0.0221,0.026,0.0265,0.0287,0.0309,0.0325,0.0344,0.0364,0.0383,0.0376,0.0393,0.0381,0.0367,0.0362,0.0343,0.0334,0.033,0.0314,0.0313,0.0304,0.0307,0.0298,0.0296,0.032,0.032,0.0321,0.0291,0,0.0243,0.0288,0.03,0.0344,0.0369,0.0376,0.0398,0.0413,0.0419,0.0433,0.0412,0.0418,0.0389,0.0387,0.0373,0.0344,0.0331,0.0339,0.0291,0.029,0.0282,0.0296,0.0301,0.0275,0.029,0.029,0.029,0,0.0268,0.0298,0.0344,0.0389,0.0401,0.0423,0.0461,0.0482,0.0494,0.0497,0.0492,0.0473,0.0458,0.0428,0.0386,0.0394,0.0355,0.0328,0.0326,0.0306,0.0279,0.0262,0.0273,0.0289,0.0289,0.0289,0.0289,0,0.028,0.033,0.037,0.0385,0.0432,0.0453,0.0478,0.0501,0.0528,0.0535,0.0549,0.0522,0.0514,0.0464,0.0401,0.0395,0.0352,0.0333,0.0288,0.0286,0.0276,0.0273,0.0303,0.0303,0.0303,0.0303,0.0303,0,0.0304,0.0336,0.038,0.0405,0.0456,0.0477,0.0529,0.0546,0.0576,0.0616,0.0582,0.0599,0.0524,0.0487,0.0421,0.0356,0.0364,0.0298,0.0282,0.0288,0.0287,0.0287,0.0285,0.0302,0.0302,0.0302,0.0303,0,0.0312,0.034,0.0392,0.0445,0.0465,0.0503,0.0567,0.0606,0.0626,0.0675,0.0678,0.066,0.0615,0.0533,0.0453,0.0389,0.032,0.0292,0.0302,0.0288,0.0254,0.0255,0.0242,0.0241,0.0241,0.024,0.024,0,0.0322,0.035,0.0419,0.0455,0.0482,0.054,0.0586,0.0627,0.0674,0.0718,0.0747,0.0714,0.0705,0.058,0.0461,0.0345,0.0322,0.0264,0.0252,0.0264,0.025,0.0251,0.0252,0.0248,0.0248,0.0248,0.0248,0,0.0341,0.0364,0.0408,0.0481,0.0536,0.0604,0.0672,0.0718,0.0774,0.0815,0.0859,0.0851,0.0739,0.0627,0.0462,0.0375,0.0282,0.0257,0.0271,0.0265,0.0269,0.0255,0.0256,0.0246,0.0246,0.0247,0.0247,0.0247,0.0354,0.0386,0.0444,0.0513,0.0579,0.0663,0.0727,0.0801,0.0881,0.0957,0.0941,0.0933,0.0795,0.0592,0.0441,0.0277,0.0292,0.0224,0.0226,0.0227,0.0235,0.0238,0.0211,0.0211,0.0211,0.0211,0.0211,0,0.037,0.0411,0.0475,0.0562,0.0634,0.067,0.0784,0.0852,0.0952,0.1012,0.1048,0.0906,0.0774,0.0606,0.0377,0.0241,0.0223,0.0179,0.0192,0.0195,0.0197,0.0204,0.0171,0.017,0.017,0.0169,0,0,0.0381,0.0438,0.0473,0.0591,0.0656,0.0764,0.0834,0.0934,0.1004,0.1068,0.1065,0.1042,0.0834,0.0656,0.0464,0.0325,0.0289,0.0286,0.0334,0.0377,0.0381,0.0239,0.0255,0,0,0,0,0]}],[{"header":{"parameterUnit":"m.s-1","parameterCategory":2,"la1":30.2991,"la2":30.254,"lo1":-89.0895,"lo2":-89.0444,"dy":0.0017,"dx":0.0017,"nx":28,"ny":28,"refTime":"2025-07-08T21:00:00:Z","depth":"4","parameterNumber":2,"parameterNumberName":"U-component_of_CURRENTS"},"data":[0,0,0,0,0,0,0,0,0,0,0,0,0,0,0,0,0,0,0,0,0,0,0,0,0,0,0,0,0,0,0,0,0,0,0,0,0,0,0,0,0,0,0,0,0,0,0,0,0,0,0,0,0,0,0,0,0,0,0.0865,0.0866,0,0.0877,0.0877,0.0877,0.0899,0.09,0.0901,0.0901,0.0922,0.0922,0.0923,0,0,0,0,0,0,0,0,0,0,0,0,0,0.0868,0.0868,0.0865,0.0866,0.0866,0.0877,0.0877,0.0877,0.0899,0.09,0.0901,0.0901,0.0922,0.0922,0.0923,0,0,0,0,0,0,0,0,0,0,0,0,0,0.0871,0.0867,0.0865,0.0879,0.0881,0.0877,0.0877,0.0877,0.0899,0.09,0.0901,0.0902,0.0922,0.0922,0.0923,0.0906,0,0,0.0923,0.0923,0,0,0,0,0,0,0,0,0.087,0.087,0.0877,0.0878,0.088,0.0889,0.0886,0.0888,0.0899,0.0891,0.0901,0.0902,0.0912,0.0913,0.0912,0.0907,0.0908,0.0923,0.0923,0.0923,0.0923,0,0,0,0,0,0,0,0.087,0.087,0.0869,0.0877,0.0879,0.0887,0.0888,0.0886,0.0896,0.0892,0.0894,0.0897,0.0913,0.0911,0.0912,0.0908,0.0923,0.0923,0.0923,0.0923,0.0966,0.0967,0,0,0,0,0,0,0.087,0.087,0.0868,0.0869,0.0879,0.0886,0.0888,0.0884,0.0896,0.0899,0.0896,0.0898,0.0911,0.0912,0.0913,0.0961,0.0923,0.0923,0.0923,0.0965,0.0966,0.0967,0,0,0,0,0,0,0.087,0.0869,0.0868,0.0871,0.0872,0.0885,0.0881,0.0884,0.0906,0.0899,0.0902,0.0918,0.0912,0.0913,0.0936,0.096,0.0923,0.0923,0.0964,0.0965,0.0967,0.1014,0,0,0,0,0,0,0.087,0.0869,0.0878,0.0871,0.0872,0.0881,0.0881,0.0884,0.0906,0.0909,0.0919,0.092,0.0912,0.0936,0.0936,0.0959,0.0923,0.0962,0.0964,0.0966,0.1011,0.1017,0.1022,0,0,0,0,0,0.087,0.0873,0.0878,0.0879,0.0879,0.0882,0.0883,0.0894,0.0906,0.0917,0.093,0.0921,0.0949,0.0936,0.0936,0.096,0.0961,0.0964,0.0966,0.1009,0.1016,0.1022,0,0,0,0,0,0,0.0881,0.0875,0.0881,0.0884,0.0891,0.0886,0.09,0.0908,0.0925,0.0937,0.0931,0.0934,0.0963,0.0955,0.0941,0.098,0.0955,0.0958,0.0987,0.0994,0.1,0.1,0.0923,0,0,0,0,0,0.0886,0.0888,0.0886,0.0893,0.0898,0.0905,0.0912,0.0921,0.0929,0.0939,0.0948,0.0959,0.0968,0.0977,0.0982,0.0999,0.0994,0.1016,0.1022,0.1027,0.1027,0.1046,0.1053,0.0976,0.0975,0.0975,0,0,0.0893,0.0891,0.0894,0.0896,0.0904,0.0911,0.0912,0.093,0.0943,0.0938,0.0969,0.0979,0.0978,0.1001,0.1014,0.1,0.1046,0.103,0.1034,0.1032,0.1049,0.1057,0.1063,0.0977,0.0977,0.0977,0,0,0.0899,0.0907,0.0909,0.0917,0.0932,0.0933,0.0944,0.0956,0.0973,0.0999,0.1001,0.1027,0.1042,0.1046,0.1048,0.1086,0.1076,0.1095,0.1122,0.1141,0.1147,0.1153,0.1154,0.116,0.1097,0.1097,0.1097,0,0.0914,0.0909,0.0914,0.0919,0.0931,0.0946,0.0957,0.097,0.0991,0.1013,0.102,0.106,0.1061,0.1084,0.1101,0.1098,0.1104,0.1096,0.1148,0.1153,0.1158,0.1158,0.1164,0.11,0.1099,0.1099,0.1099,0,0.0911,0.0921,0.0926,0.0935,0.095,0.0964,0.098,0.1008,0.1036,0.1054,0.1101,0.1107,0.1132,0.1139,0.1132,0.117,0.1161,0.1153,0.113,0.1169,0.1167,0.1171,0.1103,0.1102,0.1102,0.1101,0,0,0.091,0.0921,0.0927,0.0936,0.0962,0.0969,0.1005,0.1037,0.1065,0.1104,0.1142,0.117,0.1189,0.1192,0.1192,0.1208,0.1246,0.1201,0.1201,0.1201,0.1284,0.119,0.1186,0.1255,0.1256,0.1257,0.1268,0,0.0912,0.0919,0.093,0.0951,0.0957,0.0991,0.1018,0.1056,0.1095,0.1135,0.1167,0.1201,0.1203,0.1222,0.1243,0.1246,0.1261,0.1243,0.1247,0.1247,0.1157,0.1189,0.126,0.1271,0.1272,0.1273,0.1273,0,0.0904,0.091,0.0926,0.0956,0.0965,0.0988,0.1043,0.107,0.1132,0.1166,0.1218,0.1239,0.1278,0.1269,0.1306,0.1299,0.1299,0.1296,0.1296,0.1194,0.1162,0.1224,0.1281,0.1281,0.128,0.128,0.1279,0,0.0885,0.0909,0.0922,0.0932,0.0968,0.0999,0.103,0.1091,0.1123,0.1192,0.1227,0.1276,0.1307,0.1323,0.1334,0.1328,0.1361,0.1347,0.1259,0.1253,0.1312,0.1306,0.1368,0.1368,0.1368,0.1368,0.1368,0,0.0867,0.0882,0.0918,0.0924,0.0956,0.0994,0.1041,0.1083,0.1146,0.1184,0.1245,0.1273,0.1327,0.1353,0.1349,0.1318,0.1378,0.1265,0.1251,0.1332,0.1328,0.1315,0.1309,0.1369,0.1369,0.1368,0.1368,0,0.0838,0.086,0.0877,0.0924,0.0944,0.0971,0.1041,0.1068,0.1141,0.1191,0.1217,0.1291,0.1321,0.1351,0.1372,0.1329,0.1308,0.1281,0.1364,0.1355,0.1182,0.1178,0.1177,0.1174,0.1171,0.1169,0.1167,0,0.0819,0.0823,0.0871,0.0885,0.0911,0.0958,0.0986,0.106,0.1088,0.1186,0.1198,0.1263,0.1299,0.1256,0.1293,0.1273,0.1256,0.1234,0.1206,0.1177,0.1164,0.1164,0.1164,0.1163,0.1162,0.1161,0.1161,0,0.0783,0.0808,0.0821,0.0849,0.0881,0.0903,0.0953,0.0967,0.1048,0.1127,0.1148,0.1159,0.1188,0.1196,0.1195,0.1178,0.1241,0.1205,0.121,0.1184,0.1159,0.115,0.1153,0.1151,0.1153,0.1154,0.1154,0,0.0763,0.0761,0.0782,0.0799,0.0834,0.0835,0.0867,0.0895,0.0932,0.1041,0.1044,0.1109,0.1179,0.1146,0.1142,0.1122,0.1096,0.1047,0.106,0.1071,0.1029,0.0982,0.0908,0,0,0,0,0,0.0737,0.0721,0.0729,0.0734,0.0764,0.0785,0.0835,0.0869,0.0952,0.0938,0.0988,0.1007,0.1009,0.104,0.0995,0.1083,0.1096,0.1023,0.1045,0.11,0.1111,0.107,0,0,0,0,0,0,0.0716,0.0719,0.0706,0.0677,0.0674,0.0694,0.0724,0.0777,0.0772,0.0865,0.0872,0.0939,0.0957,0.1028,0.0977,0.0983,0.0971,0.1065,0.1061,0.1094,0.1104,0.1112,0.1074,0,0,0,0,0]},{"header":{"parameterUnit":"m.s-1","parameterCategory":2,"la1":30.2991,"la2":30.254,"lo1":-89.0895,"lo2":-89.0444,"dy":0.0017,"dx":0.0017,"nx":28,"ny":28,"refTime":"2025-07-08T21:00:00:Z","depth":"4","parameterNumber":3,"parameterNumberName":"V-component_of_CURRENTS"},"data":[0,0,0,0,0,0,0,0,0,0,0,0,0,0,0,0,0,0,0,0,0,0,0,0,0,0,0,0,0,0,0,0,0,0,0,0,0,0,0,0,0,0,0,0,0,0,0,0,0,0,0,0,0,0,0,0,0,0,0.0136,0.0136,0,0.014,0.014,0.014,0.0136,0.0136,0.0136,0.0136,0.0121,0.0121,0.012,0,0,0,0,0,0,0,0,0,0,0,0,0,0.0111,0.0112,0.0136,0.0136,0.0137,0.014,0.014,0.014,0.0136,0.0136,0.0136,0.0136,0.0121,0.0121,0.012,0,0,0,0,0,0,0,0,0,0,0,0,0,0.0118,0.0112,0.0136,0.0136,0.0136,0.014,0.014,0.014,0.0136,0.0136,0.0136,0.0136,0.0121,0.0121,0.012,0.0118,0,0,0.0119,0.0118,0,0,0,0,0,0,0,0,0.0118,0.0119,0.0136,0.0136,0.0136,0.0138,0.0125,0.0132,0.0136,0.0135,0.0136,0.0136,0.0126,0.0125,0.0125,0.0118,0.0117,0.0119,0.0118,0.0118,0.0118,0,0,0,0,0,0,0,0.0117,0.0119,0.0137,0.0136,0.0136,0.013,0.0131,0.0126,0.013,0.0135,0.0135,0.0137,0.0125,0.0125,0.0124,0.0117,0.0119,0.0118,0.0118,0.0118,0.0111,0.0112,0,0,0,0,0,0,0.012,0.0119,0.0137,0.0137,0.0128,0.0131,0.0132,0.0137,0.013,0.013,0.0137,0.0137,0.0126,0.0125,0.0124,0.0133,0.0118,0.0118,0.0117,0.0111,0.0111,0.0112,0,0,0,0,0,0,0.0119,0.0122,0.0137,0.0128,0.013,0.0132,0.0137,0.0137,0.014,0.0132,0.0131,0.0141,0.0126,0.0124,0.0124,0.0132,0.0117,0.0117,0.0111,0.0111,0.0112,0.0144,0,0,0,0,0,0,0.0119,0.0121,0.0126,0.0129,0.013,0.0143,0.0137,0.0137,0.0142,0.0141,0.0135,0.0133,0.0126,0.0125,0.0124,0.0131,0.0116,0.0111,0.0111,0.0111,0.0142,0.0145,0.0147,0,0,0,0,0,0.0118,0.0126,0.0127,0.0129,0.0137,0.0143,0.0144,0.0144,0.0142,0.0146,0.0141,0.0134,0.0126,0.0125,0.0123,0.013,0.0111,0.0111,0.0111,0.0141,0.0144,0.0147,0,0,0,0,0,0,0.0117,0.0126,0.0127,0.0138,0.0142,0.0143,0.0148,0.0147,0.0147,0.0147,0.0137,0.0135,0.0138,0.0128,0.0127,0.0128,0.0116,0.0116,0.014,0.0142,0.0145,0.0155,0.0116,0,0,0,0,0,0.0119,0.0129,0.0134,0.0143,0.0146,0.0148,0.015,0.0151,0.0151,0.0151,0.0147,0.0141,0.0137,0.0136,0.013,0.0132,0.0122,0.0134,0.0136,0.0139,0.0145,0.0134,0.0136,0.0113,0.0113,0.0113,0,0,0.012,0.0128,0.0133,0.0143,0.0147,0.0158,0.0149,0.0157,0.0166,0.0149,0.0159,0.015,0.0139,0.0142,0.0142,0.0136,0.014,0.0139,0.0141,0.0146,0.0135,0.0137,0.0139,0.0113,0.0113,0.0113,0,0,0.013,0.0136,0.0148,0.0155,0.0164,0.0166,0.017,0.0175,0.0177,0.0184,0.0174,0.0169,0.0166,0.0159,0.0155,0.0166,0.0153,0.0164,0.0186,0.0175,0.0177,0.0178,0.0169,0.017,0.0165,0.0165,0.0165,0,0.0131,0.0149,0.0151,0.0165,0.0175,0.0173,0.0188,0.0191,0.0194,0.0199,0.0192,0.0187,0.0175,0.0178,0.0181,0.0172,0.0166,0.0177,0.0179,0.018,0.0181,0.0171,0.0172,0.0167,0.0167,0.0167,0.0166,0,0.015,0.0166,0.0174,0.0193,0.0202,0.0215,0.0221,0.0229,0.0231,0.0232,0.0236,0.022,0.0217,0.021,0.0201,0.0203,0.0196,0.0183,0.0173,0.0185,0.0174,0.0174,0.0169,0.0169,0.0168,0.0168,0,0,0.0152,0.0182,0.0186,0.0203,0.0219,0.0231,0.0247,0.0262,0.0278,0.0272,0.0287,0.0273,0.0262,0.0257,0.024,0.023,0.0228,0.0215,0.0213,0.021,0.0209,0.0193,0.0191,0.0218,0.0218,0.0218,0.0199,0,0.0168,0.0201,0.0211,0.0245,0.0263,0.0271,0.0289,0.0301,0.0307,0.0319,0.03,0.0305,0.0281,0.028,0.0267,0.024,0.0229,0.0235,0.0195,0.0194,0.0181,0.0191,0.0218,0.0198,0.0198,0.0198,0.0198,0,0.0185,0.0207,0.0242,0.0279,0.0289,0.0308,0.034,0.0357,0.0368,0.0372,0.0369,0.0353,0.034,0.0315,0.0278,0.0285,0.0253,0.0228,0.0226,0.0201,0.0177,0.0182,0.0197,0.0197,0.0197,0.0197,0.0197,0,0.0191,0.0231,0.0261,0.0274,0.0312,0.0332,0.0354,0.0374,0.0398,0.0406,0.0419,0.0395,0.039,0.0348,0.0293,0.0288,0.025,0.0233,0.0188,0.0186,0.0192,0.0191,0.0206,0.0206,0.0206,0.0206,0.0206,0,0.0206,0.0231,0.027,0.0289,0.0332,0.0351,0.0397,0.0413,0.044,0.0472,0.0448,0.0458,0.0399,0.0367,0.0311,0.0251,0.026,0.0197,0.0182,0.0206,0.0206,0.0192,0.019,0.0205,0.0206,0.0206,0.0206,0,0.0207,0.0231,0.0272,0.0319,0.0338,0.037,0.0431,0.0464,0.0484,0.0524,0.0528,0.0511,0.047,0.0403,0.0334,0.0278,0.0216,0.019,0.0227,0.0214,0.0156,0.0157,0.0143,0.0142,0.0142,0.0141,0.0141,0,0.0212,0.0233,0.0293,0.0325,0.035,0.0403,0.0444,0.0483,0.052,0.0555,0.0574,0.0547,0.0523,0.0418,0.0341,0.0233,0.021,0.0175,0.016,0.0164,0.0151,0.0152,0.0153,0.014,0.014,0.014,0.0139,0,0.0221,0.0243,0.0278,0.0341,0.0391,0.045,0.0509,0.0539,0.0587,0.0602,0.0611,0.0557,0.0511,0.042,0.0337,0.0256,0.0195,0.0168,0.0169,0.0155,0.016,0.0148,0.0149,0.0137,0.0138,0.0138,0.0138,0,0.0229,0.0253,0.0302,0.0359,0.0421,0.0484,0.0515,0.0563,0.06,0.0634,0.0634,0.0581,0.0553,0.0433,0.0356,0.0275,0.0249,0.021,0.0208,0.0209,0.0226,0.0243,0.0238,0,0,0,0,0,0.0236,0.0268,0.0319,0.0385,0.0446,0.0486,0.0557,0.0585,0.0626,0.0635,0.0637,0.0591,0.0482,0.0437,0.0354,0.0336,0.023,0.0233,0.0183,0.0126,0.0128,0.0135,0,0,0,0,0,0,0.0244,0.0288,0.0316,0.0396,0.0444,0.0518,0.0565,0.0594,0.0601,0.0624,0.0569,0.0552,0.0448,0.0526,0.0346,0.0323,0.0275,0.0188,0.0186,0.0125,0.0127,0.0129,0.0137,0,0,0,0,0]}]]